CZ-4B R/B (29507 NORAD) Tracking and Keplerian Element Data

This shows tracking and keplerian element data for the satellite.

Feedback or suggestion? Click here.




ElementValue
Catalog29507
NameCZ-4B R/B
Epoch Orbit96336
Epoch Day159.8631419
Epoch Year2024
RAAN195.9708
Inclination97.6424
Eccentricity0.0038984
Argument of Perigee310.1676
Mean Anonmoly49.614
Mean Motion15.07598281
Decay Rate6.749E-05
L11 29507U 06046C 24159.86314190 .00006749 00000+0 44002-3 0 9990
L22 29507 97.6424 195.9708 0038984 310.1676 49.6140 15.07598281963369



Live tracking and technical data element details for CZ-4B R/B (NORAD 29507). CZ-4B R/B can be tracked NOW for your location showing map with azimuth and elevation plus other details from your city location.







IsCatalogInMostPopularTable: catalog: 29507, numindb: 1117
Update: records affected: 1



GetName: 29507 CZ-4B R/B

Hit Count: updated at: Tue, 17 Sep 2024 11:44:20 GMT